Location: Caltech
(34.1382°N, 118.1253°W)
Time: 05:21:40
(UTC-07:00)

UOSAT-12 - Visible Passes

Search period start: 28 July 2014 00:00
Search period end: 07 August 2014 00:00
Orbit: 595 x 663 km, 64.6° (Epoch: 27 July)

Date Brightness Start Highest point End Pass type
(mag) Time Alt. Az. Time Alt. Az. Time Alt. Az.
28 Jul 9.9 00:36:52 10° NW 00:37:36 14° NW 00:37:36 14° NW visible
28 Jul 9.0 23:17:29 10° NNW 23:20:04 27° NNE 23:20:04 27° NNE visible
29 Jul 9.6 22:00:54 10° NE 22:01:40 10° NE 22:02:25 10° NE visible
29 Jul 9.2 23:37:46 10° NNW 23:39:54 27° NNW 23:39:54 27° NNW visible
30 Jul 8.9 22:19:06 10° N 22:22:27 21° NE 22:22:27 21° NE visible
30 Jul 9.7 23:58:36 10° NW 23:59:47 17° NW 23:59:47 17° NW visible
31 Jul 8.3 22:38:58 10° NNW 22:42:23 38° NNE 22:42:23 38° NNE visible
01 Aug 9.4 21:21:21 10° NNE 21:23:25 13° NE 21:25:01 11° ENE visible
01 Aug 8.5 22:59:24 10° NNW 23:02:21 38° NW 23:02:21 38° NW visible
02 Aug 8.5 21:40:27 10° N 21:44:24 26° NE 21:45:02 25° ENE visible
02 Aug 9.4 23:20:24 10° NW 23:22:22 21° WNW 23:22:22 21° WNW visible
03 Aug 7.4 22:00:29 10° NNW 22:05:07 57° ENE 22:05:07 57° ENE visible
04 Aug 9.2 20:42:22 10° NNE 20:45:09 15° NE 20:47:54 10° E visible
04 Aug 7.6 22:21:03 10° NW 22:25:14 56° W 22:25:14 56° W visible
05 Aug 8.2 21:01:51 10° N 21:06:04 31° NE 21:08:05 22° E visible
05 Aug 9.0 22:42:16 10° WNW 22:45:26 24° W 22:45:26 24° W visible
06 Aug 7.1 21:22:02 10° NNW 21:26:45 73° ENE 21:28:20 41° SE visible
